CZ-4C DEB, 40114

Orbit data source: Space-Track

CZ-4C DEB, 40114 is space debris in LEO originally from a launch on Sat, 09 Aug 2014 UTC launched from the Jiuquan Satellite Launch Center, China (JSC). Debris objects in space refer to the collection of defunct objects orbiting the Earth. Examples of debris include non-operational satellites, rocket bodies, and fragments generated from explosions, collisions, or faulty payload assembly.

Loading next visibility...
Identifier
40114, 2014-047F
Orbit
LEO
Last TLE update
3 hours ago
Origin
Manufacturer
CAST
Mission
Spacecraft
Bus & Motor
Unknown
Mass
Unknown
Launch date (UTC)
2014-08-09 (11 years ago)
Launch vehicle
Unknown
Launch site
Jiuquan Satellite Launch Center, China (JSC)
Object type
Payload
Rocket body
Debris
Shape & HBR
Unknown
Radar Cross Section
6.100 m², Large (>1 m²)

Expand to show TLE details & history

TLE from 3 hours ago
0 CZ-4C DEB
1 40114U 14047F   25200.21094057  .00000059  00000-0  17311-3 0  9993
2 40114  63.3810 183.7973 0361522  13.4075 347.6251 13.44331977537106
Epoch: 2025-07-19T05:03Z
TLE epoch observation values (Epoch: 2025-07-19T05:03:45.265Z)
Latitude
-0.00002°
Longitude
170.60738°
Altitude
831.57 km
Speed
7.568 km/s
True Right ascension
12h 15m 11s
True Declination
0° 00' 00"
Sunlit
Object was in daylight at epoch
Visualization orbit readout
Latitude
-21.72249°
Longitude
158.781°
Altitude
882.76 km
Speed
7.518 km/s
Apparent Right ascension
10h 34m 29s
Apparent Declination
-31° 01' 46"
Sunlit
Object is in daylight
Visualization observer readout
Local Sidereal Time
21:20:18
Azimuth
294.801° NW
Elevation
-72.529°
Doppler factor
1
Orbital elements
Apogee altitude
1,362.078 km
Perigee altitude
821.953 km
Semi-major axis
7,470.153 km
Eccentricity
0.03615
Inclination
63.381°
RAAN
183.7973°
Arg. of periapsis
13.4075°
True anomaly
346.6964°
Mean anomaly
347.6251°
Eccentric anomaly
347.16496°
Mean motion
3.36162 °/min
Orbital period
107.09 mins
BSTAR
0.00017311
Loading maneuver chart data...
Loading SW <> Apogee altitude chart data...
Loading historical data...
Loading historical data...
Loading historical data...
Loading historical data...
Loading historical data...
Loading historical data...
Loading historical data...
|